Location: St Paul
(33.9360°N, 83.4200°W)
Time: 19:15:01
(UTC-04:00)

Nadezhda 3 Rocket - Pass Details

Date: 06 October 2017
Orbit: 957 x 1000 km, 82.9° (Epoch: 20 October)

Event Time Altitude Azimuth Distance (km) Brightness Sun altitude
Rises 20:10:43 0° 351° (N) 3,676 7.2 -13.2°
Reaches altitude 10° 20:13:15 10° 349° (N) 2,719 6.5 -13.8°
Maximum altitude 20:19:26 72° 267° (W) 1,010 4.3 -15.1°
Drops below altitude 10° 20:25:32 10° 183° (S) 2,681 6.3 -16.3°
Sets 20:28:01 0° 182° (S) 3,621 7.0 -16.8°
